Location: Carrières
(48.9495°N, 2.0407°E)
Time: 02:42:25
(UTC+00:00)

Transit 2A Rocket - Pass Details

Date: 27 April 2024
Orbit: 585 x 908 km, 66.7° (Epoch: 19 May)

Event Time Altitude Azimuth Distance (km) Brightness Sun altitude
Rises 09:51:25 0° 205° (SSW) 2,883 8.2 47.5°
Reaches altitude 10° 09:53:36 10° 202° (SSW) 2,016 7.5 47.8°
Maximum altitude 09:58:06 66° 121° (ESE) 738 6.7 48.3°
Drops below altitude 10° 10:03:04 10° 40° (NE) 2,218 7.5 48.8°
Sets 10:05:34 0° 38° (NE) 3,200 8.1 49.1°
